Regional Weather Roundup
Issued by NWS Jackson, KY

Home | Current Version | Previous Version | Graphics & Text | Print | Product List | Glossary On
Versions: 1 2 3 4 5 6 7 8 9 10 11 12 13 14 15 16 17 18 19 20 21 22 23 24 25 26 27 28 29 30 31 32 33 34 35 36 37 38 39 40 41 42 43 44 45 46 47 48 49 50
000
ASUS43 KJKL 021410
RWRJKL

EAST KENTUCKY HOURLY WEATHER ROUNDUP
NATIONAL WEATHER SERVICE JACKSON KY
1000 AM EDT SAT MAY 02 2015

NOTE: "FAIR" INDICATES FEW OR NO CLOUDS BELOW 12,000 FEET WITH
NO SIGNIFICANT WEATHER AND/OR OBSTRUCTIONS TO VISIBILITY.

* THESE REPORTS ARE NOT UNDER NWS QUALITY CONTROL AND MAY NOT
  REPORT WEATHER SUCH AS PRECIPITATION AND FOG.

KYZ079-080-083-085-087-088-110-112-115-119-120-021500
...EASTERN KENTUCKY...

CITY           SKY/WX    TMP DP  RH WIND       PRES   REMARKS
JACKSON        SUNNY     58  48  69 CALM      30.16R
LONDON         SUNNY     58  46  64 CALM      30.16S
SOMERSET*      PTSUNNY   54  50  87 CALM      30.17F
MONTICELLO*    MOSUNNY   60  50  69 CALM      30.19S
MIDDLESBORO*   CLOUDY    46  45  99 CALM      30.19S FOG
HARLAN APT*    CLOUDY    45  45 100 CALM      30.18S VSB 1
HAZARD APT*    SUNNY     57  48  72 CALM      30.16S
BLACK MTN*       N/A     52  43  71 N6          N/A
PIKEVILLE APT* SUNNY     54  48  82 SW3       30.16R
BIG SANDY*     PTSUNNY   53  48  84 W5        30.16R
MOREHEAD APT*  PTSUNNY   59  50  72 CALM      30.16F
$$

KYZ035-036-041-042-044-050-067-078-099-021500
...CENTRAL KENTUCKY...

CITY           SKY/WX    TMP DP  RH WIND       PRES   REMARKS
MT STERLING*   MOSUNNY   61  50  67 CALM      30.15F
FLEMING/MASON* SUNNY     61  52  72 SE3       30.15F
DANVILLE*      PTSUNNY   63  46  55 CALM      30.16S
RICHMOND*      PTSUNNY   57  46  67 CALM      30.14F
LEXINGTON      PTSUNNY   59  49  69 SW3       30.14S
FRANKFORT      PTSUNNY   60  45  57 CALM      30.14R
$$

KYZ091>093-OHZ055-061-077-WVZ005-015-034-035-042-021500
...SOUTHERN OHIO/WEST VIRGINIA...

CITY           SKY/WX    TMP DP  RH WIND       PRES   REMARKS
COVINGTON      PTSUNNY   62  45  53 CALM      30.14S
COLUMBUS       PTSUNNY   61  44  53 CALM      30.13R
DAYTON         PTSUNNY   62  47  57 CALM      30.14S
WILMINGTON     CLOUDY    63  44  50 CALM      30.13S
HUNTINGTON     MOSUNNY   56  47  71 CALM      30.14S
CHARLESTON     MOSUNNY   57  46  66 W5        30.14S
PINEVILLE*     CLOUDY    47  47 100 MISG      30.21S FOG
BECKLEY        MOSUNNY   51  42  71 W3        30.15R
BLUEFIELD      SUNNY     56  43  61 VRB6      30.15R
$$

VAZ002-007-008-TNZ017-027-036-066-071-021500
...SOUTHWEST VIRGINIA/EAST TENNESSEE...

CITY           SKY/WX    TMP DP  RH WIND       PRES   REMARKS
WISE*          MOSUNNY   55  41  58 N5        30.17S
JONESVILLE*    MOSUNNY   52  46  82 SW3       30.20R
ABINGDON*      SUNNY     55  49  80 CALM      30.16S
BRISTOL        MOSUNNY   52  47  83 CALM      30.17S
KNOXVILLE      SUNNY     58  48  69 CALM      30.16S
OAK RIDGE      SUNNY     56  49  77 CALM      30.18S
CROSSVILLE     SUNNY     61  48  62 VRB5      30.18S
NASHVILLE      MOSUNNY   63  48  58 CALM      30.17S
$$

...KEY TO REMARKS...
VSB - VISIBILITY IN MILES
WCI - WIND CHILL INDEX
HX  - HEAT INDEX

$$



USA.gov is the U.S. government's official web portal to all federal, state and local government web resources and services.